RH
16 16 15 15 14 12 11 11 11 12 12 11 11 12 12 12 12 12 11 10 10 12 15 16 16 16 15 14 14 20 29 31 28 29 26 23 20 19 17 16 16 16 15 14 13
16 16 15 15 14 14 12 12 12 12 12 11 11 11 12 12 13 12 11 10 10 12 15 18 18 16 16 16 15 17 28 23 22 22 22 19 18 17 16 16 15 14 13 12 11
17 17 16 16 15 14 14 12 12 12 11 12 12 11 12 12 14 13 11 10 10 12 15 16 16 16 16 15 15 15 18 16 16 16 16 16 16 15 15 14 12 12 11 11 10
17 18 19 18 16 15 14 14 13 11 11 12 12 12 12 15 15 12 11 10 10 12 13 15 16 17 17 16 16 15 15 15 14 14 14 15 14 13 13 12 11 11 11 10 8
15 16 16 17 18 17 15 14 14 13 13 13 12 12 14 15 13 12 11 10 9 11 13 15 14 15 16 16 16 15 14 13 13 14 14 13 12 12 12 11 11 11 10 8 7
15 15 15 15 16 17 16 16 15 14 14 13 13 12 13 13 13 12 10 10 10 11 12 13 14 14 14 15 15 15 15 13 13 13 13 12 12 11 11 10 10 10 9 8 7
15 15 15 14 14 14 14 15 16 15 14 14 13 12 12 13 13 12 11 10 11 11 12 13 12 12 12 12 14 15 17 16 15 13 13 12 11 10 10 10 10 9 8 8 7
15 14 14 15 14 14 14 15 15 15 16 14 13 13 13 12 12 11 11 11 11 11 11 11 11 10 11 11 16 18 18 18 16 15 13 12 10 9 9 10 10 9 8 7 7
16 14 14 14 14 14 14 14 14 14 14 15 14 14 13 13 12 11 11 11 10 11 11 11 10 10 10 15 17 20 17 17 17 15 14 13 11 10 9 9 9 9 8 7 7
22 16 14 14 14 14 15 15 14 14 14 14 14 14 14 13 12 12 11 11 11 11 13 13 13 15 15 16 17 16 14 14 16 16 15 14 12 10 9 8 9 9 8 7 6
24 21 15 15 15 15 15 15 15 14 14 14 14 15 15 14 13 12 12 12 11 12 14 14 14 15 13 14 13 12 13 14 14 16 17 16 13 10 9 9 8 8 8 7 6
22 23 18 15 16 16 16 16 17 16 15 15 14 14 14 14 14 14 13 12 13 14 14 14 15 14 13 12 12 11 13 14 14 16 17 16 13 9 9 7 7 7 7 7 7
20 23 21 17 18 18 18 17 17 16 16 16 15 15 14 14 14 14 14 14 13 14 14 15 14 13 13 11 10 11 11 12 13 14 14 16 14 11 9 8 7 6 6 7 6
19 22 23 19 20 19 19 18 17 16 17 17 17 16 15 15 15 15 15 14 15 14 15 15 14 13 13 12 11 11 11 12 12 14 14 15 14 12 13 11 8 6 6 6 6
21 21 24 20 21 21 20 19 18 17 21 19 17 16 15 16 16 16 15 15 15 15 15 14 14 14 14 14 13 12 11 11 13 16 18 17 19 14 13 13 12 9 7 5 5
22 21 24 21 22 22 22 21 20 21 20 20 17 16 15 16 16 16 15 15 15 16 16 16 15 15 15 14 13 13 13 16 20 21 19 17 18 19 13 13 13 11 9 8 8
23 22 23 22 23 22 22 22 23 25 22 21 19 17 17 17 17 16 16 15 16 16 17 17 17 16 16 16 16 15 17 18 17 30 18 20 21 18 14 13 13 12 11 10 10
22 21 23 23 23 23 23 24 26 23 23 21 20 19 19 19 19 19 19 18 17 17 20 19 17 17 16 15 17 17 17 20 14 20 21 16 17 11 10 11 11 11 11 10 11
24 23 24 25 25 24 25 25 21 25 23 23 23 23 22 21 20 21 20 20 19 19 19 19 19 17 17 15 15 18 17 18 20 24 29 20 15 12 11 12 12 11 10 11 12
25 26 28 28 26 25 27 26 24 25 25 24 25 24 24 23 22 23 22 20 20 20 20 19 19 18 17 16 17 17 18 20 23 20 20 20 20 18 12 11 11 11 11 12 13
27 29 31 32 28 27 30 27 25 25 26 26 26 27 26 26 25 25 24 22 22 22 21 21 21 20 20 19 18 18 18 20 23 29 26 23 17 15 14 13 12 13 13 12 13
30 32 35 34 31 32 31 27 24 25 27 28 27 27 27 28 28 28 27 25 24 23 23 23 23 23 21 21 20 19 19 20 30 19 30 38 26 12 14 15 15 15 16 15 15
31 32 36 35 37 36 32 29 26 26 28 29 29 29 29 29 30 30 29 28 27 26 25 24 26 27 24 24 23 22 22 22 28 33 31 33 21 13 15 15 16 16 17 17 17
34 35 36 37 37 37 35 33 30 28 29 30 30 30 30 30 30 30 33 31 29 28 27 26 28 28 31 25 27 24 23 24 26 39 30 32 18 16 14 16 16 16 17 17 16
38 36 36 42 39 39 38 36 35 33 32 32 32 32 32 33 32 32 32 33 32 31 30 30 30 30 29 29 29 27 25 27 28 24 25 18 22 18 14 15 15 15 16 16 16
42 40 39 38 38 40 41 40 39 37 37 36 36 36 35 36 34 34 32 33 33 34 33 33 33 33 32 31 33 32 28 28 26 24 24 21 19 16 15 14 15 16 17 17 16
46 44 42 41 41 42 42 41 41 38 37 36 38 39 39 39 35 34 34 33 33 35 36 36 37 39 39 35 36 37 28 27 27 25 22 24 18 16 16 16 17 17 17 17 17